{"data":{"norad_id":51143,"epoch":"2026-09-20T04:14:31.225056Z","epoch_age_seconds":76122,"freshness":"FRESH","line1":"1 51143U 22005AR  26263.17675029  .00001035  00000+0  41769-4 0  9998","line2":"2 51143  53.1589 139.3416 0001288  89.3356 270.7794 15.34387768258189","mean_motion":15.34387768,"eccentricity":0.0001288,"inclination_deg":53.1589,"raan_deg":139.3416,"arg_perigee_deg":89.3356,"mean_anomaly_deg":270.7794,"bstar":4.1769e-5,"rev_number":25818,"period_min":93.848506227143,"perigee_km":461.85849162477,"apogee_km":463.62070143604,"semimajor_km":6840.8765965304,"source":"CELESTRAK","updated_at":"2026-09-20T09:00:39.591706Z"}}